CDT,Max TemperatureF,Mean TemperatureF,Min TemperatureF,Max Dew PointF,MeanDew PointF,Min DewpointF,Max Humidity, Mean Humidity, Min Humidity, Max Sea Level PressureIn, Mean Sea Level PressureIn, Min Sea Level PressureIn, Max VisibilityMiles, Mean VisibilityMiles, Min VisibilityMiles, Max Wind SpeedMPH, Mean Wind SpeedMPH, Max Gust SpeedMPH,PrecipitationIn, CloudCover, Events, WindDirDegrees
2014-3-1,40,29,17,26,21,14,90,78,49,30.33,30.19,30.01,10,6,2,22,9,29,0.00,8,Snow,345
2014-3-2,17,10,2,14,1,-9,86,73,52,30.46,30.40,30.31,10,7,0,18,13,24,0.02,6,Snow,343
2014-3-3,18,6,-6,8,-4,-15,75,60,49,30.54,30.46,30.30,10,10,10,13,7,21,0.00,1,,346
2014-3-4,37,23,9,22,14,5,86,65,44,30.33,30.20,30.11,10,10,10,9,4,,0.00,1,,140
2014-3-5,38,30,23,24,21,18,84,73,53,30.35,30.25,30.14,10,10,7,16,8,21,0.00,1,,63
2014-3-6,43,32,22,27,23,19,88,73,48,30.33,30.21,30.06,10,8,5,9,6,,0.00,1,,86
2014-3-7,59,44,30,35,29,25,81,61,37,30.07,29.97,29.87,10,8,4,13,6,17,0.00,0,,185
2014-3-8,38,36,33,34,32,31,93,88,81,30.31,30.18,30.01,4,2,1,12,8,16,0.01,8,Rain,338
2014-3-9,54,40,26,33,30,25,95,67,41,30.32,30.15,29.93,10,8,2,16,6,26,0.00,0,,220
2014-3-10,65,54,44,41,35,31,73,52,33,29.95,29.81,29.71,10,10,5,20,12,26,0.00,0,,244
2014-3-11,78,58,39,50,40,32,87,62,28,29.71,29.61,29.49,10,10,5,23,5,31,0.09,2,Rain-Thunderstorm,152
2014-3-12,39,36,31,37,28,24,94,76,56,30.15,29.97,29.66,10,8,0,23,18,32,0.25,5,Rain-Snow,319
2014-3-13,60,43,26,35,29,24,94,66,33,30.15,30.05,29.88,10,10,5,15,4,21,0.00,1,,176
2014-3-14,62,50,38,33,29,24,66,41,28,30.00,29.84,29.76,10,10,10,23,11,33,0.00,0,,243
2014-3-15,64,48,31,39,32,26,86,60,29,30.07,30.01,29.93,10,10,7,23,7,30,0.00,0,,79
2014-3-16,38,31,23,32,20,11,80,66,44,30.21,30.14,30.05,10,10,7,25,18,34,0.00,5,,31
2014-3-17,45,32,19,24,18,15,86,60,32,30.11,29.90,29.75,10,10,10,10,5,,0.00,0,,99
2014-3-18,58,46,33,40,34,24,89,67,47,29.78,29.68,29.56,10,9,5,30,11,37,0.00,1,,141
2014-3-19,50,41,30,46,35,28,92,75,55,30.13,29.89,29.57,10,9,4,23,12,33,0.13,5,Rain,262
2014-3-20,65,47,30,36,30,26,91,56,24,30.12,30.02,29.91,10,10,4,15,6,24,0.00,2,,229
2014-3-21,72,52,32,36,34,30,93,58,21,30.03,29.86,29.71,10,10,5,20,5,28,0.00,1,,256
2014-3-22,42,37,32,34,25,17,79,64,46,30.37,30.23,30.04,10,10,10,21,13,25,0.00,4,,334
2014-3-23,37,30,24,18,13,8,68,50,31,30.50,30.42,30.38,10,10,10,17,11,23,0.00,1,,342
2014-3-24,40,32,23,28,17,12,82,55,36,30.39,30.29,30.16,10,10,10,8,2,,0.00,4,Rain,356
2014-3-25,35,29,24,29,18,9,85,61,34,30.30,30.23,30.13,10,10,5,21,10,30,0.00,3,Snow,310
2014-3-26,50,35,20,31,18,14,87,54,29,30.32,30.18,29.96,10,10,5,22,7,26,0.00,2,Rain,153
2014-3-27,58,48,39,52,41,32,87,77,67,29.95,29.68,29.49,10,9,3,25,15,31,0.45,7,Rain-Thunderstorm,167
2014-3-28,45,42,39,39,35,34,83,77,68,30.17,30.00,29.66,10,10,7,20,11,31,0.03,7,,320
2014-3-29,45,38,32,35,33,30,93,78,62,30.26,30.21,30.13,10,6,4,15,7,18,0.00,6,,323
2014-3-30,64,46,29,39,34,28,94,67,31,30.27,30.15,30.00,10,7,2,16,7,22,0.00,0,,162
2014-3-31,67,56,44,45,40,36,81,56,32,30.01,29.85,29.69,10,9,5,34,14,45,0.00,1,Rain,162